Location: Brunnen
(48.6541°N, 10.9920°E)
Time: 21:19:11
(UTC+00:00)

ALOS 2 - Pass Details

Date: 01 June 2020
Orbit: 630 x 632 km, 97.9° (Epoch: 07 July)

Event Time Altitude Azimuth Distance (km) Brightness Sun altitude
Exits shadow 23:07:48 36° 217° (SW) 1,007 3.2 -19.1°
Maximum altitude 23:09:03 46° 261° (W) 853 3.1 -19.1°
Drops below altitude 10° 23:13:17 10° 335° (NNW) 2,025 6.2 -19.1°
Sets 23:15:35 0° 342° (NNW) 2,938 7.4 -19.1°
